CAPE
0 0 0 0 0 0 0 0 0 0 0 15 145 0 23 11 0 0 0 0 5 3 3 7 14 17 14 13 6 6 7 10 9 5 14 8 11 13 10 11 12 13 12
0 0 0 0 0 0 0 0 0 0 0 28 0 0 1 0 0 0 0 0 0 2 2 0 0 5 10 13 10 6 4 2 4 9 5 4 4 3 9 11 9 9 6
0 0 0 0 0 0 0 0 0 0 0 5 0 0 0 0 0 0 0 0 0 0 0 0 0 0 0 2 0 0 2 3 2 4 6 8 6 3 3 4 8 10 9
0 0 0 0 0 0 0 0 0 0 7 4 0 0 0 0 0 0 0 0 0 0 0 0 0 0 0 0 0 1 3 4 3 3 4 5 3 4 2 5 7 11 11
0 0 0 0 0 0 0 0 0 0 12 4 0 0 0 0 0 0 0 0 0 0 0 0 0 0 0 0 0 2 9 9 12 11 11 10 9 5 4 7 8 15 13
0 0 0 0 0 0 0 0 0 1 2 2 0 0 0 0 0 0 0 0 0 0 0 0 0 0 0 0 0 1 10 15 15 15 13 13 10 9 11 13 19 26 24
0 0 0 0 0 0 0 0 0 0 0 0 6 6 0 0 0 0 0 0 0 0 0 0 0 0 0 0 0 0 11 14 15 14 16 14 15 14 13 27 32 24 13
0 0 0 0 0 0 0 0 0 0 0 0 0 0 0 0 0 0 0 0 0 0 0 0 0 0 0 0 0 0 5 12 15 16 15 14 16 15 17 22 25 22 26
0 0 0 0 0 0 0 0 0 0 0 0 0 0 0 0 0 0 0 0 0 0 0 0 0 0 0 0 0 0 0 6 11 16 18 20 23 22 19 21 24 25 33
0 0 0 0 0 0 0 0 0 0 0 0 0 0 0 0 0 0 0 0 0 0 0 0 0 0 0 0 0 0 0 3 3 10 15 19 24 22 23 30 37 37 47
0 0 0 0 0 0 0 0 0 0 0 0 0 0 0 0 0 0 0 0 0 0 0 0 0 0 0 0 0 0 1 3 3 13 21 23 29 34 31 37 45 48 40
0 0 0 0 0 0 0 0 0 0 0 0 0 0 0 0 0 0 0 0 0 0 0 0 0 0 0 0 0 0 0 8 0 7 15 21 24 30 42 41 44 49 47
0 0 0 0 0 0 0 0 0 0 0 0 0 0 0 0 0 0 0 0 0 0 0 0 0 0 0 0 0 0 0 3 5 4 13 15 17 21 24 31 45 52 48
0 0 0 0 0 0 0 0 0 0 0 0 0 0 0 0 0 0 0 0 0 0 0 0 0 0 0 1 1 0 2 3 1 2 0 6 14 16 18 22 20 22 35
0 0 0 0 0 0 0 0 0 0 0 0 0 0 0 0 0 0 0 0 0 0 0 0 0 1 5 4 4 9 12 12 5 14 10 7 2 6 12 22 25 25 28
0 0 0 0 0 0 0 0 0 0 0 0 0 0 0 0 0 0 0 0 0 0 0 0 0 6 10 5 6 12 13 13 9 9 7 13 5 0 2 9 19 23 29
0 0 0 0 0 0 0 0 0 0 0 0 0 0 0 0 0 0 0 1 0 1 1 0 3 5 10 12 11 14 13 17 14 2 8 2 5 8 6 1 4 20 28
0 0 0 0 0 0 0 0 0 0 0 0 0 0 0 0 0 0 0 1 1 4 9 9 5 8 10 12 14 18 11 8 19 4 10 11 11 1 0 1 9 18 20
0 0 0 0 0 0 0 0 0 0 0 0 0 0 0 0 0 0 0 1 3 4 9 10 8 10 12 10 11 14 16 16 14 9 7 8 12 8 6 21 30 34 37
0 0 0 0 0 0 0 0 0 0 0 0 0 0 0 0 0 0 0 4 4 8 8 10 9 10 12 11 21 32 22 21 26 11 14 13 13 22 33 32 30 19 5
0 0 0 0 0 0 0 0 0 0 0 0 0 0 0 0 0 1 4 7 8 10 9 10 11 10 11 17 22 27 27 42 16 31 26 34 41 37 45 32 22 2 7
0 0 0 0 0 0 0 0 0 0 0 0 0 0 0 0 0 0 0 1 0 8 9 10 10 10 12 20 23 39 44 49 35 24 50 32 38 45 29 40 0 1 4
0 0 0 0 0 0 0 0 0 0 0 0 0 0 0 0 1 1 0 0 0 0 0 10 11 12 17 18 25 27 18 31 40 38 39 66 40 57 49 22 0 5 16
0 0 0 0 0 0 0 0 0 0 0 0 0 0 0 0 0 2 1 1 3 6 7 6 8 11 13 10 12 19 28 33 24 27 45 22 76 65 40 35 20 6 16
0 0 0 0 0 0 0 0 0 0 0 0 0 0 0 0 0 0 1 2 5 7 2 3 3 2 0 0 2 23 44 38 27 58 55 31 50 57 32 70 73 14 22
0 0 0 0 0 0 0 0 0 0 0 0 0 0 0 0 0 0 2 6 8 16 12 11 11 9 4 6 5 25 42 38 30 34 51 14 46 48 40 127 92 68 56
CIN
0 0 0 0 0 0 0 0 0 0 -7 -17 -21 -14 -33 -15 0 0 0 0 0 0 0 0 0 0 0 0 0 0 0 0 0 0 0 0 0 0 0 0 0 0 0
0 0 0 0 0 0 0 0 0 0 0 -1 0 0 0 0 0 0 0 0 0 0 0 0 0 0 0 0 0 0 0 0 0 0 0 0 0 0 0 0 0 0 0
0 0 0 0 0 0 0 0 0 0 0 0 0 0 0 0 0 0 0 0 0 0 0 0 0 0 0 0 0 0 0 0 0 0 0 0 0 0 0 0 0 0 0
0 0 0 0 0 0 0 0 0 0 0 -1 0 0 0 0 0 0 0 0 0 0 0 0 0 0 0 0 0 0 0 0 0 0 0 0 0 0 0 0 0 0 0
0 0 0 0 0 0 0 0 0 0 0 0 0 0 0 0 0 0 0 0 0 0 0 0 0 0 0 0 0 0 0 0 0 0 0 0 0 0 0 0 0 0 0
0 0 0 0 0 0 0 0 0 0 0 0 0 0 0 0 0 0 0 0 0 0 0 0 0 0 0 0 0 0 0 0 0 0 0 0 0 0 0 0 0 0 0
0 0 0 0 0 0 0 0 0 0 0 0 0 0 0 0 0 0 0 0 0 0 0 0 0 0 0 0 0 0 0 0 0 0 0 0 0 0 0 0 0 0 0
0 0 0 0 0 0 0 0 0 0 0 0 0 0 0 0 0 0 0 0 0 0 0 0 0 0 0 0 0 0 0 0 0 0 0 0 0 0 0 0 0 0 0
0 0 0 0 0 0 0 0 0 0 0 0 0 0 0 0 0 0 0 0 0 0 0 0 0 0 0 0 0 0 0 0 0 0 0 0 0 0 0 0 0 0 0
0 0 0 0 0 0 0 0 0 0 0 0 0 0 0 0 0 0 0 0 0 0 0 0 0 0 0 0 0 0 0 0 0 0 0 0 0 0 0 0 0 0 0
0 0 0 0 0 0 0 0 0 0 0 0 0 0 0 0 0 0 0 0 0 0 0 0 0 0 0 0 0 0 0 0 0 0 0 0 0 0 0 0 0 0 0
0 0 0 0 0 0 0 0 0 0 0 0 0 0 0 0 0 0 0 0 0 0 0 0 0 0 0 0 0 0 0 0 0 0 0 0 0 0 0 0 0 0 0
0 0 0 0 0 0 0 0 0 0 0 0 0 0 0 0 0 0 0 0 0 0 0 0 0 0 0 0 0 0 0 -1 0 0 0 0 0 0 0 0 0 0 0
0 0 0 0 0 0 0 0 0 0 0 0 0 0 0 0 0 0 0 0 0 0 0 0 0 0 0 0 0 0 0 -1 -3 0 0 0 0 0 0 0 0 0 0
0 0 0 0 0 0 0 0 0 0 0 0 0 0 0 0 0 0 0 0 0 0 0 0 0 0 0 0 -1 0 0 0 -2 -3 -3 0 0 0 0 0 0 0 0
0 0 0 0 0 0 0 0 0 0 0 0 0 0 0 0 0 0 0 0 0 0 0 0 0 0 0 0 0 0 0 -1 -3 -5 -4 -2 -2 0 0 0 0 0 0
0 0 0 0 0 0 0 0 0 0 0 0 0 0 0 0 0 0 0 0 0 0 0 0 0 0 0 0 0 0 0 0 0 -3 -7 -7 -7 -2 0 0 0 0 0
0 0 0 0 0 0 0 0 0 0 0 0 0 0 0 0 0 0 0 0 0 0 0 0 0 0 0 0 0 0 0 0 0 -2 -6 -9 -8 -9 0 -9 -4 -1 0
0 0 0 0 0 0 0 0 0 0 0 0 0 0 0 0 0 0 0 0 0 0 0 0 0 0 0 0 0 0 0 0 0 -1 -5 -7 -6 -11 -13 -9 -5 0 0
0 0 0 0 0 0 0 0 0 0 0 0 0 0 0 0 0 0 0 0 0 0 0 0 0 0 0 0 0 0 0 0 0 0 -1 -2 -5 -5 -1 -1 0 -1 0
0 0 0 0 0 0 0 0 0 0 0 0 0 0 0 0 0 0 0 0 0 0 0 0 0 0 0 0 0 0 0 0 0 0 0 0 0 0 0 0 0 -2 0
0 0 0 0 0 0 0 0 0 0 0 0 0 0 0 0 0 0 -4 -2 -3 0 0 0 0 0 0 0 0 0 0 0 0 0 0 0 0 0 0 0 0 0 0
0 0 0 0 0 0 0 0 0 0 0 0 0 0 0 0 0 0 0 0 0 0 0 0 0 0 0 0 0 0 0 0 0 0 0 0 0 0 0 0 0 0 0
0 0 0 0 0 0 0 0 0 0 0 0 0 0 0 0 0 0 0 0 0 0 0 0 0 0 0 0 0 0 0 0 0 0 0 0 0 0 0 0 0 -2 0
0 0 0 0 0 0 0 0 0 0 0 0 0 0 0 0 0 0 0 0 0 0 -1 -3 -4 -7 -1 0 0 0 0 0 0 0 0 0 0 0 0 0 0 -1 0
0 0 0 0 0 0 0 0 0 0 0 0 0 0 0 0 0 0 0 0 0 0 0 0 0 0 -1 0 -1 0 0 0 0 0 0 0 0 0 0 0 0 0 0
Wind_Speed
4 4 5 4 3 3 4 3 2 4 3 4 9 8 9 12 9 6 7 19 21 22 21 21 19 20 19 19 20 21 21 21 19 19 21 21 20 19 18 18 19 19 19
4 3 3 3 5 5 5 5 5 5 4 8 8 9 10 10 10 7 5 9 18 20 20 20 20 19 19 19 19 20 20 21 21 20 19 19 20 21 21 20 19 20 20
6 5 5 5 5 5 5 4 4 3 2 9 9 8 8 9 8 7 5 4 9 18 18 17 19 20 19 20 20 19 19 19 21 21 21 20 21 21 22 20 20 20 21
7 5 5 6 6 5 5 5 5 3 5 6 5 6 6 6 7 8 8 7 7 6 12 14 13 17 18 19 21 20 20 21 21 21 21 22 22 23 23 21 21 21 22
8 7 6 6 6 6 6 6 5 3 6 5 5 5 4 5 6 7 9 8 8 8 7 8 6 13 16 17 21 21 21 22 21 21 22 23 22 24 23 21 21 21 22
9 6 7 7 6 6 7 8 6 5 5 4 4 5 4 4 5 6 7 7 8 7 9 8 8 6 12 13 19 20 21 23 22 23 23 23 23 23 23 22 23 23 23
9 7 6 6 8 9 9 7 7 6 6 4 2 4 4 3 4 4 5 8 9 8 8 8 8 7 7 11 18 19 22 24 23 24 24 24 22 24 24 23 22 24 26
9 8 7 7 9 8 10 10 8 6 8 7 5 2 2 6 3 4 5 7 9 8 9 9 9 9 9 9 13 15 20 23 23 24 24 24 24 24 24 23 25 25 26
9 8 9 9 9 8 9 10 10 10 6 8 12 6 2 5 5 3 3 6 7 7 8 8 9 9 10 9 11 12 20 22 22 23 24 24 24 25 24 24 25 26 26
9 10 10 10 10 8 9 9 8 10 9 8 5 8 8 8 5 3 1 4 7 7 9 7 9 9 11 10 13 13 22 23 23 25 25 25 26 26 26 26 27 26 26
9 10 11 10 10 8 9 10 9 10 8 7 7 6 5 3 6 4 6 10 8 6 8 8 8 8 10 10 11 14 22 21 21 24 26 26 26 26 27 27 27 27 28
6 9 10 9 9 8 8 8 9 10 9 8 6 6 6 5 7 6 7 11 12 9 8 8 7 9 10 11 14 19 23 17 20 24 26 26 26 26 26 26 27 28 28
6 7 8 8 7 8 7 8 7 8 9 8 7 5 5 6 5 5 6 8 10 10 6 5 7 9 10 11 13 20 23 18 18 26 26 27 27 28 27 27 27 27 27
6 7 7 8 8 8 7 6 5 6 7 6 8 7 5 5 5 5 6 8 9 9 8 7 8 9 11 12 15 22 17 21 24 25 24 25 27 27 27 27 26 26 27
7 7 7 8 7 7 7 5 5 6 6 5 6 6 5 5 5 5 5 6 7 9 11 8 11 12 11 12 14 16 17 23 27 20 17 21 26 28 27 27 27 27 27
7 7 7 7 6 6 6 5 5 6 6 5 5 6 6 6 5 5 5 5 6 8 9 12 11 13 13 12 15 16 18 24 20 16 18 18 23 25 26 27 27 26 26
7 7 7 6 6 6 6 6 6 5 6 6 6 6 7 7 6 6 6 6 6 7 10 12 11 12 15 15 15 14 16 16 14 21 17 22 20 19 21 25 25 25 25
7 7 7 6 5 5 6 6 6 6 7 7 7 7 7 6 7 7 7 8 8 9 9 15 13 12 14 15 16 17 13 13 13 16 21 17 16 19 21 21 21 20 20
7 7 7 6 6 5 5 5 5 6 6 6 7 7 7 8 8 8 9 8 8 8 9 10 12 11 11 12 15 14 14 14 13 20 16 16 20 17 20 18 15 17 18
8 7 7 6 5 5 4 4 4 4 4 5 6 6 7 8 9 11 9 10 9 9 10 9 10 11 11 12 12 13 13 12 13 13 14 17 17 17 17 16 13 20 23
8 7 7 6 6 4 2 2 2 2 4 5 5 5 5 5 6 5 8 10 11 10 9 10 10 10 11 12 13 11 12 12 15 10 13 12 11 11 10 13 16 20 24
9 8 7 7 6 4 8 2 6 3 4 5 6 5 6 3 7 5 6 7 7 9 10 10 9 12 14 12 11 12 11 12 12 11 15 13 11 12 13 9 16 20 24
9 8 7 7 6 6 8 6 2 3 4 5 6 6 6 5 5 11 8 9 6 5 8 10 13 13 14 13 14 15 15 13 12 12 13 12 12 10 11 8 15 22 22
9 8 8 7 6 5 10 7 5 6 4 4 5 5 7 7 10 11 12 10 10 10 11 10 12 13 13 14 13 13 14 14 12 11 10 10 12 12 10 9 14 18 21
9 8 8 8 7 7 10 8 7 4 4 4 4 4 7 8 11 12 12 11 11 11 11 10 12 13 13 16 14 9 8 9 10 11 6 9 9 10 8 5 9 18 18
9 8 8 7 4 6 10 9 8 4 5 3 4 4 7 7 9 10 11 9 11 11 12 13 12 11 12 11 11 11 9 9 9 6 9 7 8 9 6 3 8 11 10
Wind_Direction
34 15 2 348 7 352 356 344 338 6 14 51 52 64 62 70 73 72 67 49 52 50 49 43 38 37 39 38 35 28 22 18 17 15 16 11 4 0 357 354 351 352 346
20 21 29 19 17 6 8 1 10 358 28 74 70 64 68 74 66 63 68 73 64 54 48 43 38 35 30 31 31 22 20 13 8 4 4 2 360 357 357 358 355 352 355
40 13 25 23 19 19 11 11 1 18 73 81 89 81 84 78 77 73 54 31 112 83 55 40 37 33 29 29 20 16 15 12 4 1 355 356 353 351 347 343 350 352 350
31 36 40 32 14 25 17 28 12 45 71 79 66 67 71 86 71 57 51 34 20 4 88 46 43 41 30 28 18 14 10 6 0 357 355 351 347 345 338 334 337 338 340
38 38 41 34 21 40 35 22 46 12 99 112 112 118 86 63 53 55 43 39 38 22 7 67 88 63 38 24 17 10 8 4 359 354 354 347 343 340 333 334 333 332 333
42 40 52 42 42 48 46 40 41 57 31 58 86 88 73 63 60 53 45 35 32 22 21 13 1 49 57 29 16 8 6 1 356 353 349 343 342 338 333 332 331 331 329
49 39 52 52 59 55 49 42 57 52 55 24 259 157 136 115 39 37 33 32 16 22 16 6 10 354 5 12 17 6 4 358 355 350 346 342 338 336 330 328 328 324 322
52 56 48 54 46 60 53 47 38 67 57 31 345 288 223 161 104 58 16 28 11 9 7 8 11 3 357 350 6 7 6 353 348 345 342 339 336 334 330 328 323 320 320
62 61 57 54 58 53 52 42 42 33 61 60 42 359 311 13 320 118 55 18 3 1 1 1 14 2 0 348 354 357 2 348 344 342 339 336 334 332 328 323 321 321 320
67 63 58 56 51 53 49 47 44 47 32 37 54 48 51 24 354 338 37 21 354 7 3 357 3 356 355 350 349 2 354 343 343 342 338 334 332 329 326 324 325 323 320
75 68 61 57 54 52 56 50 47 49 53 50 38 24 31 60 25 335 323 348 356 16 354 0 354 350 351 345 342 358 346 337 342 340 336 333 329 328 328 326 325 323 323
89 72 69 67 58 60 51 53 54 52 51 49 47 40 34 17 10 357 329 340 333 350 347 351 357 348 345 345 340 355 339 332 338 338 335 333 332 329 326 324 323 321 320
101 86 78 69 68 62 56 54 53 53 49 47 33 35 35 26 5 350 340 342 328 333 343 342 356 343 343 342 341 352 325 334 340 337 332 330 329 328 326 325 323 321 321
109 103 90 83 76 66 59 56 59 54 49 46 38 28 25 17 5 360 352 339 331 328 339 348 347 351 342 346 324 332 331 330 340 317 317 323 327 324 325 326 326 325 323
123 118 100 88 77 70 66 69 59 53 47 39 38 22 10 10 6 357 346 346 334 322 324 343 335 348 344 331 336 331 326 330 307 305 309 322 322 324 326 325 323 322 320
128 136 115 99 90 78 71 64 67 51 43 34 31 20 7 6 354 355 348 337 324 319 308 329 337 333 337 329 329 326 324 311 318 326 323 319 319 318 322 324 323 322 321
148 144 134 127 110 88 67 69 68 48 37 33 25 15 12 357 359 357 342 335 330 333 313 318 322 330 335 329 330 329 318 320 327 323 325 319 313 318 321 317 318 320 322
159 150 146 136 122 96 73 64 56 39 31 25 14 6 10 358 355 353 339 342 341 333 326 314 320 330 331 335 330 325 321 326 322 328 322 317 318 325 313 309 308 311 321
160 151 156 151 141 110 82 70 55 39 31 17 8 2 3 352 353 351 343 342 343 333 318 313 319 328 330 331 332 323 333 325 328 328 330 328 331 316 312 305 311 331 343
168 164 160 151 141 124 98 70 56 34 21 20 6 357 357 356 355 350 343 353 340 322 327 323 319 324 325 338 326 330 331 334 329 334 337 332 317 328 322 347 10 3 353
173 169 161 158 154 154 97 73 73 25 9 3 3 349 8 357 360 349 341 341 336 332 331 326 324 327 331 339 334 327 327 330 334 341 336 330 332 328 350 347 8 6 354
175 173 172 171 174 170 115 86 324 7 355 350 347 348 343 228 350 230 333 321 300 323 325 326 325 325 331 331 324 325 324 332 331 336 331 335 337 339 349 5 12 2 354
174 180 182 182 184 156 161 171 265 304 321 348 342 340 339 10 324 342 332 278 280 254 269 323 320 327 325 327 324 321 328 324 328 322 335 333 345 336 340 7 15 1 352
183 185 186 189 186 153 168 182 224 273 295 330 333 341 347 347 33 336 329 336 339 338 341 329 329 319 322 322 318 319 317 327 320 333 351 334 331 338 334 0 2 3 355
185 189 188 191 195 168 175 192 230 252 280 315 332 340 349 349 17 336 323 337 335 340 329 333 308 298 295 290 289 307 322 326 330 333 15 339 332 327 326 318 345 3 3
186 187 189 193 160 185 172 194 229 257 282 319 329 344 121 13 338 342 328 341 334 337 329 327 329 331 328 326 323 339 331 325 325 318 12 337 331 345 323 342 355 357 359